STARLINK-34488, 64604

Orbit data source: Space-Track

STARLINK-34488, 64604 is a payload satellite owned by SpaceX/Seattle (US) in LEO that was launched on Wed, 25 Jun 2025 UTC via an FALCON 9 launch vehicle from the Air Force Eastern Test Range (AFETR). Payload-class satellites include a variety of spacecraft equipped with specific instruments for various scientific and technological missions. These include communications satellites like Starlink; space stations such as the ISS; scientific satellites like the Hubble; Earth observation satellites from companies like Planet Labs, Umbra, and HawkEye 360; GPS; miniature CubeSats for education and research; and military/defense satellites.

Loading next visibility...
Identifier
64604, 2025-137L
Orbit
LEO
Country
Flag of USUS
Related business
Manufacturer
SpaceX/Seattle
Mission
Operational Commercial Communications
Bus & Motor
STARLINK V2MO, Unknown motor
Mass
575 kg wet, ~530 kg dry
Launch date (UTC)
2025-06-25 (1 year ago)
Launch vehicle
FALCON 9
Launch site
Air Force Eastern Test Range (AFETR)
Object type
Payload
Rocket body
Debris
Shape & HBR
Box + 2 Pan, 17.7 m
Radar Cross Section
36.964 m², Large (>1 m²)

Expand to show TLE details & history
Last TLE update: 10 hours ago

TLE from 10 hours ago
0 STARLINK-34488
1 64604U 25137L   26171.40792353  .00000128  00000-0  16460-4 0  9990
2 64604  53.1576 217.9694 0001136  77.1364 282.9764 15.30196433 56460
Epoch: 2026-06-20T09:47Z
TLE epoch observation values (Epoch: 2026-06-20T09:47:24.592Z)
Latitude
-0.00001°
Longitude
162.49394°
Altitude
475.95 km
Speed
7.629 km/s
True Right ascension
14h 31m 52s
True Declination
0° 00' 00"
Sunlit
Object was in full shadow at epoch
Visualization orbit readout
Latitude
Unknown
Longitude
Unknown
Altitude
Unknown
Speed
Unknown
Apparent Right ascension
Unknown
Apparent Declination
Unknown
Sunlit
N/A
Visualization observer readout
Local Sidereal Time
07:12:32
Azimuth
Unknown
Elevation
Unknown
Doppler factor
Unknown
Orbital elements
Apogee altitude
476.261 km
Perigee altitude
474.704 km
Semi-major axis
6,853.62 km
Eccentricity
0.00011
Inclination
53.1576°
RAAN
217.9694°
Arg. of periapsis
77.1364°
True anomaly
282.96371°
Mean anomaly
282.9764°
Eccentric anomaly
282.97006°
Mean motion
3.82528 °/min
Orbital period
94.11 mins
BSTAR
0.00001646
Loading maneuver chart data...
Computing Atmospheric mass density...
Loading historical data...
Loading historical data...
Loading historical data...
Loading historical data...
Loading historical data...
Loading historical data...
Loading historical data...

Documentation

Showing up to 5 results
|